AAL2768 KORD-KSEA

Flight info

Callsign AAL2768
Flight time 3h 45m
Altitude 38000
Route DCT MYKIE DCT MONNY DCT IANNA DCT FSD DCT DPR DCT LWT DCT MLP GLASR3
Aircraft B772/H-VGDW/C

Departure

Time 2026-05-08 04:07
Airport Chicago O'Hare International Airport (KORD)

Arrival

Time 2026-05-08 07:52
Airport Seattle–Tacoma International Airport (KSEA)
Time Latitude Longitude Altitude Speed Heading
2026-05-08 03:32 41.97346 -87.89736 675 ft 0 kts 19°
2026-05-08 03:45 41.97327 -87.89744 674 ft 4 kts 11°
2026-05-08 03:45 41.97300 -87.89748 674 ft 4 kts
2026-05-08 03:45 41.97273 -87.89751 675 ft 4 kts 15°
2026-05-08 03:45 41.97274 -87.89753 675 ft 4 kts
2026-05-08 03:46 41.97294 -87.89770 675 ft 4 kts 319°
2026-05-08 03:46 41.97314 -87.89794 675 ft 3 kts 324°
2026-05-08 03:46 41.97328 -87.89806 675 ft 0 kts 146°
2026-05-08 03:50 41.97313 -87.89792 675 ft 6 kts 144°
2026-05-08 03:50 41.97285 -87.89749 674 ft 6 kts 113°
2026-05-08 03:50 41.97290 -87.89692 672 ft 6 kts 68°
2026-05-08 03:50 41.97312 -87.89642 673 ft 6 kts 56°
2026-05-08 03:51 41.97339 -87.89597 675 ft 6 kts 45°
2026-05-08 03:51 41.97374 -87.89562 675 ft 6 kts 31°
2026-05-08 03:51 41.97412 -87.89534 675 ft 6 kts 23°
2026-05-08 03:51 41.97455 -87.89523 675 ft 6 kts
2026-05-08 03:52 41.97498 -87.89523 675 ft 6 kts 360°
2026-05-08 03:52 41.97542 -87.89523 675 ft 6 kts 359°
2026-05-08 03:52 41.97588 -87.89524 675 ft 7 kts 359°
2026-05-08 03:52 41.97641 -87.89524 675 ft 8 kts 359°
2026-05-08 03:53 41.97703 -87.89524 675 ft 9 kts
2026-05-08 03:53 41.97772 -87.89524 675 ft 10 kts 359°
2026-05-08 03:53 41.97846 -87.89524 675 ft 11 kts
2026-05-08 03:53 41.97926 -87.89514 675 ft 12 kts 16°
2026-05-08 03:54 41.97989 -87.89447 675 ft 12 kts 47°
2026-05-08 03:54 41.98043 -87.89363 675 ft 12 kts 48°
2026-05-08 03:54 41.98116 -87.89344 675 ft 12 kts 328°
2026-05-08 03:54 41.98175 -87.89423 675 ft 12 kts 313°
2026-05-08 03:55 41.98234 -87.89505 674 ft 13 kts 314°
2026-05-08 03:55 41.98287 -87.89601 672 ft 13 kts 288°
2026-05-08 03:55 41.98290 -87.89723 674 ft 13 kts 268°
2026-05-08 03:55 41.98290 -87.89846 674 ft 13 kts 271°
2026-05-08 03:56 41.98290 -87.89971 674 ft 14 kts 270°
2026-05-08 03:56 41.98290 -87.90101 673 ft 14 kts 270°
2026-05-08 03:56 41.98290 -87.90234 673 ft 14 kts 270°
2026-05-08 03:56 41.98288 -87.90368 673 ft 14 kts 269°
2026-05-08 03:57 41.98290 -87.90505 672 ft 15 kts 271°
2026-05-08 03:57 41.98290 -87.90640 672 ft 15 kts 269°
2026-05-08 03:57 41.98289 -87.90777 673 ft 15 kts 269°
2026-05-08 03:57 41.98286 -87.90914 673 ft 15 kts 270°
2026-05-08 03:58 41.98291 -87.91051 673 ft 15 kts 271°
2026-05-08 03:58 41.98290 -87.91188 673 ft 15 kts 269°
2026-05-08 03:58 41.98289 -87.91325 675 ft 15 kts 269°
2026-05-08 03:58 41.98289 -87.91462 675 ft 15 kts 270°
2026-05-08 03:59 41.98288 -87.91599 674 ft 15 kts 269°
2026-05-08 03:59 41.98288 -87.91737 675 ft 15 kts 274°
2026-05-08 03:59 41.98293 -87.91875 675 ft 15 kts 272°
2026-05-08 03:59 41.98293 -87.92016 673 ft 15 kts 263°
2026-05-08 04:00 41.98283 -87.92158 673 ft 15 kts 266°
2026-05-08 04:00 41.98277 -87.92301 674 ft 15 kts 266°
2026-05-08 04:00 41.98269 -87.92482 674 ft 26 kts 267°
2026-05-08 04:00 41.98276 -87.92779 674 ft 34 kts 273°
2026-05-08 04:01 41.98279 -87.92946 675 ft 15 kts 270°
2026-05-08 04:01 41.98279 -87.93082 675 ft 15 kts 273°
2026-05-08 04:01 41.98300 -87.93135 676 ft 4 kts 326°
2026-05-08 04:01 41.98324 -87.93144 676 ft 4 kts 354°
2026-05-08 04:02 41.98350 -87.93144 677 ft 4 kts
2026-05-08 04:02 41.98383 -87.93144 677 ft 5 kts
2026-05-08 04:02 41.98428 -87.93144 677 ft 8 kts
2026-05-08 04:02 41.98492 -87.93143 676 ft 11 kts 360°
2026-05-08 04:03 41.98577 -87.93144 675 ft 13 kts 360°
2026-05-08 04:03 41.98769 -87.93142 675 ft 0 kts 360°
2026-05-08 04:03 41.98779 -87.93142 675 ft 3 kts 360°
2026-05-08 04:04 41.98780 -87.93142 675 ft 3 kts 360°
2026-05-08 04:04 41.98785 -87.93142 675 ft 5 kts
2026-05-08 04:04 41.98833 -87.93087 674 ft 14 kts 76°
2026-05-08 04:04 41.98830 -87.92980 675 ft 13 kts 89°
2026-05-08 04:05 41.98830 -87.92926 675 ft 0 kts 90°
2026-05-08 04:06 41.98830 -87.92920 675 ft 7 kts 90°
2026-05-08 04:06 41.98829 -87.92602 677 ft 69 kts 90°
2026-05-08 04:06 41.98831 -87.91629 673 ft 138 kts 90°
2026-05-08 04:06 41.98832 -87.90643 743 ft 169 kts 91°
2026-05-08 04:07 41.98737 -87.88549 1778 ft 169 kts 94°
2026-05-08 04:07 41.98606 -87.86991 2383 ft 167 kts 92°
2026-05-08 04:07 41.98534 -87.85946 2594 ft 174 kts 86°
2026-05-08 04:07 41.98960 -87.84415 2722 ft 181 kts 37°
2026-05-08 04:08 42.00133 -87.83895 2932 ft 192 kts 350°
2026-05-08 04:08 42.01342 -87.84790 3130 ft 211 kts 313°
2026-05-08 04:08 42.02104 -87.86550 3090 ft 227 kts 289°
2026-05-08 04:08 42.02503 -87.88693 3371 ft 243 kts 283°
2026-05-08 04:09 42.02837 -87.90951 4036 ft 249 kts 282°
2026-05-08 04:09 42.03166 -87.93250 4750 ft 251 kts 281°
2026-05-08 04:09 42.03497 -87.95552 5025 ft 251 kts 281°
2026-05-08 04:09 42.03834 -87.97865 5012 ft 252 kts 282°
2026-05-08 04:10 42.04175 -88.00170 5015 ft 251 kts 282°
2026-05-08 04:10 42.04520 -88.02474 5014 ft 251 kts 282°
2026-05-08 04:10 42.04867 -88.04778 5025 ft 251 kts 282°
2026-05-08 04:10 42.05217 -88.07080 5027 ft 251 kts 282°
2026-05-08 04:11 42.05568 -88.09384 5027 ft 251 kts 282°
2026-05-08 04:11 42.05918 -88.11682 5030 ft 250 kts 282°
2026-05-08 04:11 42.06268 -88.13972 5019 ft 250 kts 282°
2026-05-08 04:11 42.06617 -88.16255 5017 ft 249 kts 282°
2026-05-08 04:12 42.06965 -88.18532 5021 ft 248 kts 282°
2026-05-08 04:12 42.07312 -88.20805 5020 ft 248 kts 282°
2026-05-08 04:12 42.07658 -88.23077 5023 ft 248 kts 282°
2026-05-08 04:12 42.07992 -88.25271 4997 ft 241 kts 282°
2026-05-08 04:13 42.08319 -88.27425 5017 ft 231 kts 282°
2026-05-08 04:13 42.08636 -88.29516 5019 ft 232 kts 282°
2026-05-08 04:13 42.08961 -88.31647 5027 ft 237 kts 281°
2026-05-08 04:13 42.09332 -88.33977 5050 ft 273 kts 281°
2026-05-08 04:14 42.09756 -88.36641 5048 ft 309 kts 281°
2026-05-08 04:14 42.10219 -88.39630 5042 ft 343 kts 281°
2026-05-08 04:14 42.10689 -88.42822 5217 ft 340 kts 281°
2026-05-08 04:14 42.11114 -88.45837 5224 ft 319 kts 281°
2026-05-08 04:15 42.11527 -88.48700 5113 ft 303 kts 281°
2026-05-08 04:15 42.11908 -88.51414 5041 ft 285 kts 278°
2026-05-08 04:15 42.12017 -88.54004 5028 ft 270 kts 271°
2026-05-08 04:15 42.11993 -88.56462 5000 ft 256 kts 270°
2026-05-08 04:16 42.11952 -88.58787 5021 ft 241 kts 270°
2026-05-08 04:16 42.11917 -88.60973 5011 ft 227 kts 270°
2026-05-08 04:16 42.11889 -88.63031 5001 ft 213 kts 270°
2026-05-08 04:16 42.11868 -88.64953 5012 ft 198 kts 271°
2026-05-08 04:17 42.11851 -88.66755 5031 ft 199 kts 271°
2026-05-08 04:17 42.11838 -88.68938 5106 ft 264 kts 270°
2026-05-08 04:17 42.11819 -88.71433 5054 ft 263 kts 270°
2026-05-08 04:17 42.11801 -88.73843 5120 ft 255 kts 271°
2026-05-08 04:18 42.11786 -88.76218 5898 ft 251 kts 270°
2026-05-08 04:18 42.11772 -88.78542 7005 ft 246 kts 270°
2026-05-08 04:18 42.11758 -88.80841 7924 ft 246 kts 270°
2026-05-08 04:18 42.11745 -88.83144 8835 ft 246 kts 271°
2026-05-08 04:19 42.11732 -88.85450 9737 ft 247 kts 271°
2026-05-08 04:19 42.11719 -88.87782 10491 ft 253 kts 271°
2026-05-08 04:19 42.11707 -88.90264 10728 ft 279 kts 271°
2026-05-08 04:19 42.11693 -88.93005 10942 ft 306 kts 271°
2026-05-08 04:20 42.11676 -88.95959 11485 ft 322 kts 271°
2026-05-08 04:20 42.11656 -88.99012 12310 ft 330 kts 271°
2026-05-08 04:20 42.11635 -89.02123 13307 ft 334 kts 271°
2026-05-08 04:20 42.11612 -89.05268 14287 ft 337 kts 271°
2026-05-08 04:21 42.11589 -89.08439 15247 ft 340 kts 272°
2026-05-08 04:21 42.11566 -89.11632 16224 ft 342 kts 273°
2026-05-08 04:21 42.11541 -89.14854 17168 ft 346 kts 273°
2026-05-08 04:21 42.11517 -89.18075 18080 ft 351 kts 274°
2026-05-08 04:22 42.11491 -89.21377 18914 ft 354 kts 274°
2026-05-08 04:22 42.11462 -89.24712 19705 ft 359 kts 274°
2026-05-08 04:22 42.11434 -89.28099 20453 ft 364 kts 274°
2026-05-08 04:22 42.11403 -89.31524 21293 ft 367 kts 274°
2026-05-08 04:23 42.11370 -89.34964 22157 ft 369 kts 274°
2026-05-08 04:23 42.11336 -89.38435 22974 ft 372 kts 273°
2026-05-08 04:23 42.11301 -89.41941 23668 ft 377 kts 273°
2026-05-08 04:23 42.11265 -89.45493 24212 ft 382 kts 273°
2026-05-08 04:24 42.11226 -89.49086 24764 ft 386 kts 273°
2026-05-08 04:24 42.11186 -89.52710 25338 ft 388 kts 273°
2026-05-08 04:24 42.11145 -89.56360 25897 ft 391 kts 273°
2026-05-08 04:24 42.11103 -89.60037 26427 ft 394 kts 273°
2026-05-08 04:25 42.11058 -89.63742 26927 ft 397 kts 273°
2026-05-08 04:25 42.11013 -89.67479 27408 ft 401 kts 273°
2026-05-08 04:25 42.10965 -89.71245 27850 ft 404 kts 273°
2026-05-08 04:25 42.10916 -89.75047 28262 ft 408 kts 273°
2026-05-08 04:26 42.10866 -89.78878 28678 ft 411 kts 273°
2026-05-08 04:26 42.10814 -89.82682 29079 ft 413 kts 272°
2026-05-08 04:26 42.10760 -89.86562 29436 ft 416 kts 272°
2026-05-08 04:26 42.10704 -89.90470 29734 ft 419 kts 272°
2026-05-08 04:27 42.10647 -89.94414 30029 ft 421 kts 272°
2026-05-08 04:27 42.10587 -89.98377 30288 ft 423 kts 272°
2026-05-08 04:27 42.10526 -90.02344 30519 ft 425 kts 272°
2026-05-08 04:27 42.10464 -90.06325 30834 ft 425 kts 272°
2026-05-08 04:28 42.10399 -90.10290 31261 ft 422 kts 272°
2026-05-08 04:28 42.10334 -90.14227 31694 ft 419 kts 272°
2026-05-08 04:28 42.10268 -90.18144 32077 ft 418 kts 271°
2026-05-08 04:28 42.10202 -90.22051 32429 ft 417 kts 271°
2026-05-08 04:29 42.10135 -90.25949 32782 ft 416 kts 271°
2026-05-08 04:29 42.10068 -90.29783 33151 ft 414 kts 271°
2026-05-08 04:29 42.09998 -90.33655 33533 ft 413 kts 271°
2026-05-08 04:29 42.09927 -90.37514 33906 ft 412 kts 271°
2026-05-08 04:30 42.09856 -90.41375 34084 ft 414 kts 271°
2026-05-08 04:30 42.09783 -90.45264 34256 ft 416 kts 271°
2026-05-08 04:30 42.09708 -90.49158 34517 ft 416 kts 270°
2026-05-08 04:30 42.09631 -90.53047 34810 ft 415 kts 270°
2026-05-08 04:31 42.09553 -90.56938 35041 ft 416 kts 270°
2026-05-08 04:31 42.09474 -90.60837 35269 ft 417 kts 270°
2026-05-08 04:31 42.09393 -90.64739 35512 ft 417 kts 270°
2026-05-08 04:31 42.09311 -90.68642 35761 ft 417 kts 270°
2026-05-08 04:32 42.09228 -90.72546 36008 ft 417 kts 270°
2026-05-08 04:32 42.09144 -90.76452 36211 ft 417 kts 270°
2026-05-08 04:32 42.09057 -90.80373 36335 ft 421 kts 270°
2026-05-08 04:32 42.08969 -90.84315 36534 ft 421 kts 270°
2026-05-08 04:33 42.08880 -90.88250 36818 ft 420 kts 269°
2026-05-08 04:33 42.08789 -90.92178 37086 ft 420 kts 269°
2026-05-08 04:33 42.08697 -90.96105 37307 ft 420 kts 269°
2026-05-08 04:33 42.08604 -91.00035 37519 ft 420 kts 269°
2026-05-08 04:34 42.08509 -91.03967 37748 ft 420 kts 269°
2026-05-08 04:34 42.08414 -91.07905 37857 ft 422 kts 269°
2026-05-08 04:34 42.08217 -91.15822 37911 ft 423 kts 269°
2026-05-08 04:35 42.08145 -91.23722 37929 ft 421 kts 275°
2026-05-08 04:35 42.08966 -91.31519 37937 ft 421 kts 280°
2026-05-08 04:36 42.10535 -91.39122 37937 ft 422 kts 287°
2026-05-08 04:36 42.12391 -91.46554 37932 ft 422 kts 287°
2026-05-08 04:37 42.14258 -91.54052 37920 ft 422 kts 287°
2026-05-08 04:37 42.16105 -91.61572 37927 ft 423 kts 287°
2026-05-08 04:38 42.17941 -91.69112 37926 ft 424 kts 286°
2026-05-08 04:38 42.19773 -91.76673 37943 ft 425 kts 287°
2026-05-08 04:39 42.21603 -91.84249 37930 ft 425 kts 287°
2026-05-08 04:39 42.23429 -91.91830 37937 ft 425 kts 287°
2026-05-08 04:40 42.25250 -91.99416 37951 ft 425 kts 287°
2026-05-08 04:40 42.27066 -92.07007 37954 ft 425 kts 287°
2026-05-08 04:41 42.28878 -92.14607 37949 ft 425 kts 287°
2026-05-08 04:41 42.30688 -92.22223 37947 ft 425 kts 286°
2026-05-08 04:42 42.32479 -92.29784 37918 ft 425 kts 287°
2026-05-08 04:42 42.34280 -92.37414 37950 ft 426 kts 286°
2026-05-08 04:43 42.36075 -92.45043 37930 ft 426 kts 286°
2026-05-08 04:43 42.37869 -92.52696 37941 ft 427 kts 286°
2026-05-08 04:44 42.39662 -92.60366 37949 ft 428 kts 286°
2026-05-08 04:44 42.41449 -92.68043 37913 ft 428 kts 286°
2026-05-08 04:45 42.43232 -92.75723 37932 ft 428 kts 286°
2026-05-08 04:45 42.45009 -92.83409 37930 ft 428 kts 286°
2026-05-08 04:46 42.46772 -92.91060 37931 ft 428 kts 286°
2026-05-08 04:46 42.48551 -92.98803 37940 ft 428 kts 286°
2026-05-08 04:47 42.50308 -93.06456 37918 ft 428 kts 287°
2026-05-08 04:47 42.52554 -93.13942 37929 ft 430 kts 292°
2026-05-08 04:48 42.55017 -93.21329 37949 ft 430 kts 292°
2026-05-08 04:48 42.57468 -93.28738 37960 ft 431 kts 292°
2026-05-08 04:49 42.59907 -93.36168 37941 ft 431 kts 292°
2026-05-08 04:49 42.62339 -93.43605 37931 ft 431 kts 292°
2026-05-08 04:50 42.64764 -93.51042 37935 ft 430 kts 292°
2026-05-08 04:50 42.67181 -93.58477 37938 ft 430 kts 292°
2026-05-08 04:51 42.69592 -93.65911 37934 ft 430 kts 292°
2026-05-08 04:51 42.71996 -93.73347 37935 ft 430 kts 292°
2026-05-08 04:52 42.74396 -93.80788 37914 ft 429 kts 292°
2026-05-08 04:52 42.76790 -93.88236 37916 ft 430 kts 292°
2026-05-08 04:53 42.79183 -93.95694 37924 ft 430 kts 292°
2026-05-08 04:53 42.81572 -94.03167 37934 ft 430 kts 292°
2026-05-08 04:54 42.83940 -94.10592 37939 ft 431 kts 292°
2026-05-08 04:54 42.86323 -94.18085 37953 ft 431 kts 292°
2026-05-08 04:55 42.88702 -94.25588 37960 ft 431 kts 292°
2026-05-08 04:55 42.91079 -94.33106 37928 ft 432 kts 292°
2026-05-08 04:56 42.93454 -94.40637 37936 ft 432 kts 292°
2026-05-08 04:56 42.95442 -94.46962 37928 ft 433 kts 292°
2026-05-08 04:57 42.97797 -94.54468 37928 ft 433 kts 292°
2026-05-08 04:57 43.00161 -94.62028 37925 ft 433 kts 292°
2026-05-08 04:58 43.02519 -94.69588 37942 ft 432 kts 292°
2026-05-08 04:58 43.04872 -94.77155 37940 ft 433 kts 292°
2026-05-08 04:59 43.07223 -94.84738 37934 ft 433 kts 292°
2026-05-08 04:59 43.09567 -94.92319 37942 ft 433 kts 292°
2026-05-08 05:00 43.11903 -94.99895 37928 ft 432 kts 292°
2026-05-08 05:00 43.14235 -95.07482 37921 ft 432 kts 292°
2026-05-08 05:01 43.16545 -95.15020 37915 ft 432 kts 292°
2026-05-08 05:01 43.18865 -95.22613 37916 ft 432 kts 292°
2026-05-08 05:02 43.21185 -95.30227 37996 ft 434 kts 292°
2026-05-08 05:02 43.22345 -95.34043 38241 ft 433 kts 292°
2026-05-08 05:02 43.23501 -95.37851 38542 ft 432 kts 292°
2026-05-08 05:03 43.24652 -95.41647 38769 ft 431 kts 292°
2026-05-08 05:03 43.25798 -95.45433 38939 ft 431 kts 292°
2026-05-08 05:03 43.26949 -95.49241 39090 ft 431 kts 292°
2026-05-08 05:03 43.28097 -95.53046 39254 ft 432 kts 292°
2026-05-08 05:04 43.29244 -95.56853 39424 ft 431 kts 292°
2026-05-08 05:04 43.30391 -95.60662 39580 ft 432 kts 292°
2026-05-08 05:04 43.32687 -95.68310 39803 ft 434 kts 291°
2026-05-08 05:05 43.34975 -95.75955 39878 ft 436 kts 291°
2026-05-08 05:05 43.37276 -95.83664 39902 ft 436 kts 291°
2026-05-08 05:06 43.39569 -95.91369 39909 ft 435 kts 291°
2026-05-08 05:06 43.41854 -95.99072 39918 ft 435 kts 291°
2026-05-08 05:07 43.44130 -96.06766 39928 ft 434 kts 291°
2026-05-08 05:07 43.46401 -96.14470 39926 ft 434 kts 291°
2026-05-08 05:08 43.48668 -96.22181 39945 ft 435 kts 291°
2026-05-08 05:08 43.50932 -96.29905 39936 ft 435 kts 291°
2026-05-08 05:09 43.53192 -96.37640 39933 ft 435 kts 291°
2026-05-08 05:09 43.55448 -96.45385 39929 ft 435 kts 291°
2026-05-08 05:10 43.58824 -96.57019 39905 ft 436 kts 291°
2026-05-08 05:11 43.61069 -96.64787 39930 ft 436 kts 291°
2026-05-08 05:11 43.63311 -96.72565 39936 ft 436 kts 291°
2026-05-08 05:12 43.65549 -96.80299 39934 ft 437 kts 292°
2026-05-08 05:12 43.67976 -96.87999 39914 ft 437 kts 293°
2026-05-08 05:13 43.70453 -96.95676 39924 ft 437 kts 293°
2026-05-08 05:13 43.72911 -97.03371 39924 ft 438 kts 293°
2026-05-08 05:14 43.75351 -97.11094 39923 ft 438 kts 293°
2026-05-08 05:14 43.77779 -97.18819 39917 ft 438 kts 293°
2026-05-08 05:15 43.80200 -97.26553 39937 ft 438 kts 293°
2026-05-08 05:15 43.82621 -97.34306 39928 ft 438 kts 293°
2026-05-08 05:16 43.85033 -97.42052 39923 ft 438 kts 293°
2026-05-08 05:16 43.87443 -97.49813 39924 ft 438 kts 293°
2026-05-08 05:17 43.89846 -97.57575 39929 ft 438 kts 293°
2026-05-08 05:17 43.92242 -97.65340 39922 ft 438 kts 292°
2026-05-08 05:18 43.94630 -97.73103 39921 ft 437 kts 292°
2026-05-08 05:18 43.97013 -97.80868 39936 ft 437 kts 293°
2026-05-08 05:19 43.99391 -97.88644 39927 ft 437 kts 292°
2026-05-08 05:19 44.01764 -97.96425 39914 ft 437 kts 292°
2026-05-08 05:20 44.04129 -98.04208 39904 ft 437 kts 292°
2026-05-08 05:20 44.06473 -98.11939 39912 ft 437 kts 292°
2026-05-08 05:21 44.08826 -98.19727 39909 ft 437 kts 292°
2026-05-08 05:21 44.11174 -98.27522 39911 ft 437 kts 292°
2026-05-08 05:22 44.13515 -98.35318 39909 ft 437 kts 292°
2026-05-08 05:22 44.15856 -98.43135 39915 ft 437 kts 292°
2026-05-08 05:23 44.18192 -98.50961 39918 ft 438 kts 292°
2026-05-08 05:23 44.20524 -98.58798 39917 ft 438 kts 292°
2026-05-08 05:24 44.22852 -98.66645 39915 ft 438 kts 292°
2026-05-08 05:24 44.25175 -98.74500 39901 ft 438 kts 292°
2026-05-08 05:25 44.27476 -98.82305 39927 ft 438 kts 292°
2026-05-08 05:25 44.29790 -98.90179 39919 ft 439 kts 292°
2026-05-08 05:26 44.32103 -98.98074 39910 ft 440 kts 292°
2026-05-08 05:26 44.34413 -99.05984 39905 ft 440 kts 292°
2026-05-08 05:27 44.36719 -99.13904 39897 ft 440 kts 292°
2026-05-08 05:27 44.39018 -99.21824 39902 ft 440 kts 292°
2026-05-08 05:28 44.41311 -99.29750 39900 ft 440 kts 292°
2026-05-08 05:28 44.43595 -99.37672 39895 ft 439 kts 292°
2026-05-08 05:29 44.45876 -99.45606 39897 ft 439 kts 292°
2026-05-08 05:29 44.48151 -99.53546 39883 ft 438 kts 292°
2026-05-08 05:30 44.50412 -99.61460 39889 ft 438 kts 291°
2026-05-08 05:30 44.52667 -99.69380 39892 ft 437 kts 291°
2026-05-08 05:31 44.54918 -99.77309 39890 ft 437 kts 291°
2026-05-08 05:31 44.57160 -99.85234 39890 ft 437 kts 291°
2026-05-08 05:32 44.59385 -99.93125 39893 ft 438 kts 291°
2026-05-08 05:32 44.61619 -100.01073 39889 ft 438 kts 291°
2026-05-08 05:33 44.63846 -100.09023 39886 ft 438 kts 291°
2026-05-08 05:33 44.66075 -100.17002 39885 ft 438 kts 291°
2026-05-08 05:34 44.68297 -100.24984 39883 ft 439 kts 291°
2026-05-08 05:34 44.70514 -100.32976 39886 ft 439 kts 291°
2026-05-08 05:35 44.72725 -100.40971 39885 ft 440 kts 291°
2026-05-08 05:35 44.74939 -100.49004 39877 ft 440 kts 291°
2026-05-08 05:36 44.77148 -100.57045 39874 ft 441 kts 291°
2026-05-08 05:36 44.79353 -100.65097 39876 ft 441 kts 291°
2026-05-08 05:37 44.81552 -100.73157 39872 ft 441 kts 291°
2026-05-08 05:37 44.83745 -100.81220 39874 ft 441 kts 291°
2026-05-08 05:38 44.85934 -100.89294 39883 ft 441 kts 291°
2026-05-08 05:38 44.88118 -100.97377 39888 ft 441 kts 291°
2026-05-08 05:39 44.90296 -101.05468 39892 ft 441 kts 291°
2026-05-08 05:39 44.92468 -101.13560 39893 ft 441 kts 291°
2026-05-08 05:40 44.94618 -101.21601 39896 ft 441 kts 291°
2026-05-08 05:40 44.96776 -101.29697 39897 ft 440 kts 291°
2026-05-08 05:41 44.98927 -101.37796 39897 ft 440 kts 291°
2026-05-08 05:41 45.01072 -101.45900 39908 ft 440 kts 291°
2026-05-08 05:42 45.03213 -101.54014 39903 ft 441 kts 291°
2026-05-08 05:42 45.05348 -101.62135 39890 ft 440 kts 291°
2026-05-08 05:43 45.07477 -101.70258 39894 ft 440 kts 291°
2026-05-08 05:43 45.09715 -101.78325 39904 ft 440 kts 293°
2026-05-08 05:44 45.12099 -101.86316 39902 ft 441 kts 293°
2026-05-08 05:44 45.14479 -101.94316 39905 ft 441 kts 293°
2026-05-08 05:45 45.16835 -102.02343 39891 ft 441 kts 293°
2026-05-08 05:45 45.19175 -102.10389 39909 ft 442 kts 292°
2026-05-08 05:46 45.21116 -102.17092 39907 ft 442 kts 292°
2026-05-08 05:46 45.23825 -102.26476 39903 ft 443 kts 292°
2026-05-08 05:47 45.25774 -102.33248 39905 ft 443 kts 292°
2026-05-08 05:47 45.28098 -102.41347 39902 ft 443 kts 292°
2026-05-08 05:48 45.30420 -102.49467 39919 ft 444 kts 293°
2026-05-08 05:48 45.32736 -102.57589 39906 ft 444 kts 292°
2026-05-08 05:49 45.35052 -102.65741 39923 ft 445 kts 292°
2026-05-08 05:49 45.37350 -102.73857 39927 ft 446 kts 292°
2026-05-08 05:50 45.39661 -102.82043 39923 ft 446 kts 292°
2026-05-08 05:50 45.41969 -102.90249 39895 ft 446 kts 293°
2026-05-08 05:51 45.44269 -102.98452 39927 ft 446 kts 293°
2026-05-08 05:51 45.46562 -103.06660 39915 ft 446 kts 293°
2026-05-08 05:52 45.48845 -103.14856 39901 ft 445 kts 293°
2026-05-08 05:52 45.51121 -103.23057 39920 ft 445 kts 293°
2026-05-08 05:53 45.53390 -103.31263 39918 ft 445 kts 292°
2026-05-08 05:53 45.55652 -103.39469 39898 ft 444 kts 293°
2026-05-08 05:54 45.57904 -103.47667 39927 ft 443 kts 293°
2026-05-08 05:54 45.60149 -103.55866 39916 ft 443 kts 293°
2026-05-08 05:55 45.62384 -103.64055 39923 ft 443 kts 293°
2026-05-08 05:55 45.64616 -103.72262 39921 ft 442 kts 293°
2026-05-08 05:56 45.66839 -103.80465 39914 ft 442 kts 293°
2026-05-08 05:56 45.69054 -103.88671 39918 ft 442 kts 293°
2026-05-08 05:57 45.71264 -103.96883 39948 ft 442 kts 293°
2026-05-08 05:57 45.73469 -104.05102 39940 ft 442 kts 293°
2026-05-08 05:58 45.75668 -104.13330 39934 ft 442 kts 293°
2026-05-08 05:58 45.77860 -104.21562 39941 ft 442 kts 293°
2026-05-08 05:59 45.80047 -104.29799 39918 ft 442 kts 293°
2026-05-08 05:59 45.82211 -104.37980 39937 ft 442 kts 293°
2026-05-08 06:00 45.84383 -104.46220 39946 ft 442 kts 293°
2026-05-08 06:00 45.86549 -104.54469 39946 ft 442 kts 293°
2026-05-08 06:01 45.88711 -104.62730 39947 ft 442 kts 293°
2026-05-08 06:01 45.90867 -104.70995 39942 ft 443 kts 293°
2026-05-08 06:02 45.93019 -104.79277 39934 ft 442 kts 293°
2026-05-08 06:02 45.95165 -104.87564 39943 ft 443 kts 293°
2026-05-08 06:03 45.97309 -104.95872 39943 ft 443 kts 293°
2026-05-08 06:03 45.99445 -105.04181 39950 ft 443 kts 293°
2026-05-08 06:04 46.01576 -105.12499 39939 ft 443 kts 293°
2026-05-08 06:04 46.03703 -105.20832 39935 ft 443 kts 293°
2026-05-08 06:05 46.05817 -105.29146 39921 ft 442 kts 293°
2026-05-08 06:05 46.07915 -105.37423 39925 ft 442 kts 293°
2026-05-08 06:06 46.10019 -105.45756 39923 ft 442 kts 293°
2026-05-08 06:06 46.12112 -105.54076 39924 ft 442 kts 292°
2026-05-08 06:07 46.14203 -105.62416 39921 ft 442 kts 292°
2026-05-08 06:07 46.16287 -105.70763 39921 ft 442 kts 292°
2026-05-08 06:08 46.18366 -105.79117 39923 ft 442 kts 292°
2026-05-08 06:08 46.20440 -105.87480 39925 ft 442 kts 292°
2026-05-08 06:09 46.22507 -105.95850 39926 ft 443 kts 292°
2026-05-08 06:09 46.24569 -106.04228 39926 ft 443 kts 292°
2026-05-08 06:10 46.26625 -106.12614 39928 ft 443 kts 292°
2026-05-08 06:10 46.28675 -106.21008 39915 ft 443 kts 292°
2026-05-08 06:11 46.30715 -106.29394 39929 ft 442 kts 292°
2026-05-08 06:11 46.32747 -106.37775 39934 ft 441 kts 292°
2026-05-08 06:12 46.34773 -106.46165 39944 ft 441 kts 292°
2026-05-08 06:12 46.36788 -106.54538 39944 ft 441 kts 292°
2026-05-08 06:13 46.38785 -106.62871 39954 ft 441 kts 292°
2026-05-08 06:13 46.40790 -106.71264 39930 ft 440 kts 292°
2026-05-08 06:14 46.42784 -106.79645 39948 ft 440 kts 292°
2026-05-08 06:14 46.44769 -106.88022 39954 ft 439 kts 292°
2026-05-08 06:15 46.46748 -106.96403 39955 ft 439 kts 292°
2026-05-08 06:15 46.48721 -107.04794 39960 ft 439 kts 292°
2026-05-08 06:16 46.50684 -107.13170 39970 ft 439 kts 292°
2026-05-08 06:16 46.52643 -107.21561 39954 ft 438 kts 292°
2026-05-08 06:17 46.55559 -107.34124 39962 ft 437 kts 292°
2026-05-08 06:17 46.57494 -107.42494 39964 ft 437 kts 292°
2026-05-08 06:18 46.59421 -107.50860 39970 ft 436 kts 292°
2026-05-08 06:18 46.61330 -107.59184 39966 ft 436 kts 292°
2026-05-08 06:19 46.63244 -107.67560 39954 ft 436 kts 292°
2026-05-08 06:19 46.65148 -107.75931 39960 ft 435 kts 292°
2026-05-08 06:20 46.67045 -107.84298 39957 ft 435 kts 292°
2026-05-08 06:20 46.68933 -107.92659 39963 ft 434 kts 292°
2026-05-08 06:21 46.70813 -108.01016 39966 ft 434 kts 292°
2026-05-08 06:21 46.72686 -108.09378 39969 ft 434 kts 292°
2026-05-08 06:22 46.74555 -108.17746 39934 ft 434 kts 292°
2026-05-08 06:22 46.76410 -108.26096 39943 ft 432 kts 292°
2026-05-08 06:23 46.78243 -108.34382 39947 ft 431 kts 292°
2026-05-08 06:23 46.80079 -108.42704 39954 ft 431 kts 292°
2026-05-08 06:24 46.81908 -108.51030 39954 ft 431 kts 292°
2026-05-08 06:24 46.83731 -108.59360 39954 ft 431 kts 292°
2026-05-08 06:25 46.85548 -108.67700 39908 ft 431 kts 293°
2026-05-08 06:25 46.87353 -108.76018 39940 ft 429 kts 292°
2026-05-08 06:26 46.89146 -108.84320 39953 ft 428 kts 292°
2026-05-08 06:26 46.90933 -108.92615 39950 ft 427 kts 292°
2026-05-08 06:27 46.92712 -109.00908 39957 ft 427 kts 292°
2026-05-08 06:27 46.94472 -109.09149 39952 ft 427 kts 292°
2026-05-08 06:28 46.96237 -109.17452 39929 ft 427 kts 292°
2026-05-08 06:28 46.97993 -109.25738 39962 ft 426 kts 292°
2026-05-08 06:29 46.99738 -109.34009 39976 ft 424 kts 292°
2026-05-08 06:29 47.01474 -109.42270 39993 ft 424 kts 292°
2026-05-08 06:30 47.03203 -109.50530 39982 ft 424 kts 292°
2026-05-08 06:30 47.04907 -109.58798 40000 ft 425 kts 290°
2026-05-08 06:31 47.05982 -109.67378 40008 ft 430 kts 284°
2026-05-08 06:31 47.06757 -109.76059 39988 ft 428 kts 284°
2026-05-08 06:32 47.07535 -109.84700 40003 ft 427 kts 284°
2026-05-08 06:32 47.08312 -109.93274 39991 ft 426 kts 284°
2026-05-08 06:33 47.09092 -110.01887 39987 ft 426 kts 284°
2026-05-08 06:33 47.09866 -110.10501 39986 ft 426 kts 284°
2026-05-08 06:34 47.10633 -110.19114 39986 ft 425 kts 284°
2026-05-08 06:34 47.11391 -110.27714 39987 ft 425 kts 284°
2026-05-08 06:35 47.12142 -110.36307 40000 ft 425 kts 284°
2026-05-08 06:35 47.12768 -110.43518 39997 ft 425 kts 284°
2026-05-08 06:36 47.13509 -110.52128 40009 ft 425 kts 284°
2026-05-08 06:36 47.14238 -110.60701 40006 ft 426 kts 284°
2026-05-08 06:37 47.14967 -110.69337 40008 ft 425 kts 284°
2026-05-08 06:37 47.15688 -110.77958 40010 ft 425 kts 284°
2026-05-08 06:38 47.16402 -110.86572 40019 ft 425 kts 284°
2026-05-08 06:38 47.17112 -110.95196 40014 ft 425 kts 283°
2026-05-08 06:39 47.17815 -111.03821 40007 ft 425 kts 284°
2026-05-08 06:39 47.18507 -111.12439 39982 ft 424 kts 283°
2026-05-08 06:40 47.19192 -111.21041 40014 ft 424 kts 283°
2026-05-08 06:40 47.19874 -111.29655 39993 ft 425 kts 283°
2026-05-08 06:41 47.20552 -111.38298 40008 ft 425 kts 283°
2026-05-08 06:41 47.21220 -111.46935 40002 ft 426 kts 283°
2026-05-08 06:42 47.21880 -111.55529 39981 ft 426 kts 283°
2026-05-08 06:42 47.22538 -111.64183 39985 ft 426 kts 283°
2026-05-08 06:43 47.23189 -111.72844 39993 ft 426 kts 283°
2026-05-08 06:43 47.23833 -111.81511 40001 ft 426 kts 283°
2026-05-08 06:44 47.24474 -111.90197 40004 ft 427 kts 283°
2026-05-08 06:44 47.25107 -111.98882 40006 ft 427 kts 283°
2026-05-08 06:45 47.25733 -112.07583 40012 ft 426 kts 282°
2026-05-08 06:45 47.26349 -112.16248 40017 ft 425 kts 282°
2026-05-08 06:46 47.26959 -112.24898 40035 ft 424 kts 282°
2026-05-08 06:46 47.27563 -112.33544 40037 ft 424 kts 282°
2026-05-08 06:47 47.28161 -112.42198 40035 ft 425 kts 282°
2026-05-08 06:47 47.28753 -112.50872 39992 ft 425 kts 282°
2026-05-08 06:48 47.29336 -112.59514 40031 ft 424 kts 282°
2026-05-08 06:48 47.29913 -112.68109 40031 ft 424 kts 282°
2026-05-08 06:49 47.30483 -112.76757 40025 ft 424 kts 282°
2026-05-08 06:49 47.31044 -112.85414 40027 ft 424 kts 282°
2026-05-08 06:50 47.31602 -112.94075 40033 ft 425 kts 282°
2026-05-08 06:50 47.32156 -113.02748 40017 ft 425 kts 281°
2026-05-08 06:51 47.32701 -113.11435 40024 ft 426 kts 281°
2026-05-08 06:51 47.33242 -113.20126 40004 ft 426 kts 281°
2026-05-08 06:52 47.33775 -113.28805 40024 ft 425 kts 281°
2026-05-08 06:52 47.34295 -113.37468 40019 ft 424 kts 280°
2026-05-08 06:53 47.34815 -113.46130 39980 ft 424 kts 281°
2026-05-08 06:53 47.35327 -113.54797 40004 ft 424 kts 281°
2026-05-08 06:54 47.35833 -113.63468 39993 ft 424 kts 281°
2026-05-08 06:54 47.36329 -113.72082 39995 ft 425 kts 281°
2026-05-08 06:55 47.36823 -113.80768 39991 ft 425 kts 280°
2026-05-08 06:55 47.37305 -113.89465 40000 ft 425 kts 280°
2026-05-08 06:56 47.37789 -113.98160 39992 ft 425 kts 279°
2026-05-08 06:56 47.38266 -114.06890 39983 ft 427 kts 280°
2026-05-08 06:57 47.38734 -114.15621 39965 ft 428 kts 279°
2026-05-08 06:57 47.39197 -114.24384 39972 ft 428 kts 279°
2026-05-08 06:58 47.39653 -114.33146 39968 ft 428 kts 279°
2026-05-08 06:58 47.40104 -114.41919 39939 ft 429 kts 279°
2026-05-08 06:59 47.40548 -114.50695 39960 ft 429 kts 279°
2026-05-08 06:59 47.40986 -114.59482 39965 ft 429 kts 279°
2026-05-08 07:00 47.41416 -114.68227 39969 ft 430 kts 279°
2026-05-08 07:00 47.41841 -114.77044 39968 ft 431 kts 279°
2026-05-08 07:01 47.42264 -114.85871 39965 ft 431 kts 278°
2026-05-08 07:01 47.42672 -114.94702 39963 ft 431 kts 278°
2026-05-08 07:02 47.43076 -115.03529 39963 ft 431 kts 278°
2026-05-08 07:02 47.43478 -115.12350 39964 ft 431 kts 278°
2026-05-08 07:03 47.43871 -115.21196 39966 ft 432 kts 278°
2026-05-08 07:03 47.44257 -115.30056 39947 ft 431 kts 278°
2026-05-08 07:04 47.44633 -115.38873 39962 ft 430 kts 278°
2026-05-08 07:04 47.45008 -115.47707 39964 ft 430 kts 278°
2026-05-08 07:05 47.45374 -115.56532 39944 ft 430 kts 278°
2026-05-08 07:05 47.45731 -115.65356 39950 ft 430 kts 278°
2026-05-08 07:06 47.46222 -115.74103 39949 ft 430 kts 279°
2026-05-08 07:06 47.46809 -115.82897 39952 ft 431 kts 279°
2026-05-08 07:07 47.47375 -115.91703 39966 ft 430 kts 279°
2026-05-08 07:07 47.47915 -116.00510 39961 ft 430 kts 279°
2026-05-08 07:08 47.48440 -116.09321 39980 ft 430 kts 279°
2026-05-08 07:08 47.48955 -116.18117 39987 ft 428 kts 279°
2026-05-08 07:09 47.49464 -116.26889 40004 ft 428 kts 279°
2026-05-08 07:09 47.49969 -116.35667 40000 ft 429 kts 278°
2026-05-08 07:10 47.50467 -116.44470 40010 ft 430 kts 278°
2026-05-08 07:10 47.50960 -116.53278 40025 ft 430 kts 278°
2026-05-08 07:11 47.51444 -116.62096 40021 ft 430 kts 278°
2026-05-08 07:11 47.51923 -116.70919 40036 ft 430 kts 278°
2026-05-08 07:12 47.52394 -116.79737 40038 ft 430 kts 278°
2026-05-08 07:12 47.52856 -116.88506 40034 ft 430 kts 278°
2026-05-08 07:13 47.53313 -116.97324 40031 ft 430 kts 278°
2026-05-08 07:13 47.53765 -117.06150 40027 ft 430 kts 278°
2026-05-08 07:14 47.54210 -117.14983 40022 ft 430 kts 278°
2026-05-08 07:14 47.54648 -117.23818 40000 ft 431 kts 278°
2026-05-08 07:15 47.55079 -117.32660 40008 ft 431 kts 277°
2026-05-08 07:15 47.55503 -117.41490 40011 ft 430 kts 277°
2026-05-08 07:16 47.55922 -117.50334 40021 ft 431 kts 277°
2026-05-08 07:16 47.56335 -117.59192 40020 ft 431 kts 277°
2026-05-08 07:17 47.56965 -117.67995 40002 ft 429 kts 281°
2026-05-08 07:17 47.57822 -117.76748 40012 ft 430 kts 281°
2026-05-08 07:18 47.58680 -117.85506 39982 ft 430 kts 281°
2026-05-08 07:18 47.59518 -117.94278 39998 ft 430 kts 281°
2026-05-08 07:19 47.60343 -118.03047 39993 ft 430 kts 281°
2026-05-08 07:19 47.61160 -118.11827 39975 ft 430 kts 281°
2026-05-08 07:20 47.61966 -118.20558 39980 ft 430 kts 280°
2026-05-08 07:20 47.62771 -118.29352 39974 ft 430 kts 280°
2026-05-08 07:21 47.63569 -118.38151 39946 ft 431 kts 280°
2026-05-08 07:21 47.64361 -118.46954 39971 ft 431 kts 280°
2026-05-08 07:22 47.65015 -118.54283 39966 ft 431 kts 280°
2026-05-08 07:22 47.65796 -118.63107 39971 ft 432 kts 280°
2026-05-08 07:23 47.66572 -118.71948 39957 ft 432 kts 279°
2026-05-08 07:23 47.67341 -118.80793 39963 ft 432 kts 279°
2026-05-08 07:24 47.68103 -118.89643 39953 ft 432 kts 279°
2026-05-08 07:24 47.68858 -118.98492 39952 ft 432 kts 279°
2026-05-08 07:25 47.69606 -119.07345 39956 ft 432 kts 279°
2026-05-08 07:26 47.70717 -119.20636 39945 ft 432 kts 279°
2026-05-08 07:26 47.71448 -119.29493 39961 ft 433 kts 279°
2026-05-08 07:27 47.72174 -119.38364 39954 ft 433 kts 279°
2026-05-08 07:27 47.72893 -119.47236 39939 ft 432 kts 279°
2026-05-08 07:28 47.73599 -119.56044 39944 ft 432 kts 278°
2026-05-08 07:28 47.74302 -119.64908 39945 ft 433 kts 278°
2026-05-08 07:29 47.75000 -119.73799 39942 ft 433 kts 278°
2026-05-08 07:29 47.75691 -119.82677 39939 ft 433 kts 278°
2026-05-08 07:30 47.76375 -119.91572 39937 ft 433 kts 278°
2026-05-08 07:30 47.76718 -119.96053 39361 ft 440 kts 278°
2026-05-08 07:30 47.77061 -120.00571 38782 ft 439 kts 278°
2026-05-08 07:30 47.77401 -120.05073 38029 ft 438 kts 278°
2026-05-08 07:31 47.77740 -120.09563 37286 ft 436 kts 278°
2026-05-08 07:31 47.78075 -120.14034 36567 ft 434 kts 277°
2026-05-08 07:31 47.78405 -120.18461 35812 ft 425 kts 277°
2026-05-08 07:31 47.78722 -120.22771 35010 ft 414 kts 277°
2026-05-08 07:32 47.79031 -120.26989 34211 ft 408 kts 277°
2026-05-08 07:32 47.79337 -120.31186 33318 ft 411 kts 277°
2026-05-08 07:32 47.79651 -120.35484 32410 ft 426 kts 276°
2026-05-08 07:32 47.79977 -120.39977 31499 ft 451 kts 276°
2026-05-08 07:33 47.80318 -120.44703 30601 ft 462 kts 276°
2026-05-08 07:33 47.80657 -120.49434 29819 ft 458 kts 276°
2026-05-08 07:33 47.80990 -120.54124 28936 ft 454 kts 276°
2026-05-08 07:33 47.81318 -120.58768 28148 ft 449 kts 276°
2026-05-08 07:34 47.81638 -120.63307 27414 ft 445 kts 276°
2026-05-08 07:34 47.81962 -120.67932 26641 ft 442 kts 276°
2026-05-08 07:34 47.82278 -120.72460 25897 ft 438 kts 276°
2026-05-08 07:34 47.82586 -120.76897 25193 ft 435 kts 276°
2026-05-08 07:35 47.82893 -120.81365 24451 ft 433 kts 275°
2026-05-08 07:35 47.83196 -120.85812 23712 ft 431 kts 275°
2026-05-08 07:35 47.83496 -120.90234 22872 ft 429 kts 275°
2026-05-08 07:35 47.83794 -120.94634 22092 ft 425 kts 275°
2026-05-08 07:36 47.84087 -120.98994 21353 ft 421 kts 275°
2026-05-08 07:36 47.84375 -121.03317 20674 ft 418 kts 275°
2026-05-08 07:36 47.84659 -121.07601 19972 ft 414 kts 275°
2026-05-08 07:36 47.84940 -121.11849 19282 ft 411 kts 275°
2026-05-08 07:37 47.85218 -121.16070 18608 ft 408 kts 275°
2026-05-08 07:37 47.85494 -121.20271 17841 ft 407 kts 275°
2026-05-08 07:37 47.85765 -121.24443 17140 ft 404 kts 275°
2026-05-08 07:37 47.86034 -121.28591 16472 ft 401 kts 274°
2026-05-08 07:38 47.86299 -121.32721 15805 ft 399 kts 274°
2026-05-08 07:38 47.86558 -121.36830 15137 ft 398 kts 274°
2026-05-08 07:38 47.86816 -121.40908 14586 ft 393 kts 274°
2026-05-08 07:38 47.87073 -121.44966 13901 ft 393 kts 274°
2026-05-08 07:39 47.87327 -121.48998 13355 ft 388 kts 274°
2026-05-08 07:39 47.87573 -121.52955 12923 ft 378 kts 274°
2026-05-08 07:39 47.87813 -121.56757 12821 ft 361 kts 274°
2026-05-08 07:39 47.88037 -121.60355 12722 ft 345 kts 274°
2026-05-08 07:40 47.88249 -121.63840 12626 ft 330 kts 274°
2026-05-08 07:40 47.88418 -121.67162 12525 ft 310 kts 268°
2026-05-08 07:40 47.87970 -121.70229 12193 ft 303 kts 245°
2026-05-08 07:40 47.86842 -121.72823 12032 ft 294 kts 229°
2026-05-08 07:41 47.85401 -121.74962 12026 ft 292 kts 223°
2026-05-08 07:41 47.83882 -121.76958 12020 ft 291 kts 221°
2026-05-08 07:41 47.82365 -121.78945 12021 ft 291 kts 222°
2026-05-08 07:41 47.80860 -121.80947 12012 ft 287 kts 223°
2026-05-08 07:42 47.79394 -121.82918 12013 ft 280 kts 223°
2026-05-08 07:42 47.77956 -121.84858 12019 ft 279 kts 223°
2026-05-08 07:42 47.76609 -121.86910 12012 ft 277 kts 236°
2026-05-08 07:42 47.75669 -121.89423 12002 ft 280 kts 243°
2026-05-08 07:43 47.74799 -121.91972 11599 ft 272 kts 243°
2026-05-08 07:43 47.73936 -121.94464 10932 ft 271 kts 243°
2026-05-08 07:43 47.73069 -121.96945 10229 ft 270 kts 243°
2026-05-08 07:43 47.72212 -121.99382 9567 ft 268 kts 243°
2026-05-08 07:44 47.71349 -122.01822 8889 ft 265 kts 242°
2026-05-08 07:44 47.70500 -122.04214 8443 ft 254 kts 242°
2026-05-08 07:44 47.69712 -122.06427 8351 ft 230 kts 242°
2026-05-08 07:44 47.68998 -122.08430 8189 ft 211 kts 242°
2026-05-08 07:45 47.68328 -122.10306 7905 ft 203 kts 242°
2026-05-08 07:45 47.67675 -122.12133 7712 ft 197 kts 242°
2026-05-08 07:45 47.67041 -122.13908 7469 ft 193 kts 242°
2026-05-08 07:45 47.66412 -122.15664 7174 ft 192 kts 242°
2026-05-08 07:46 47.65793 -122.17393 6768 ft 190 kts 241°
2026-05-08 07:46 47.65169 -122.19132 6314 ft 190 kts 241°
2026-05-08 07:46 47.64550 -122.20860 5881 ft 190 kts 241°
2026-05-08 07:46 47.63931 -122.22583 5447 ft 189 kts 241°
2026-05-08 07:47 47.63312 -122.24304 5019 ft 188 kts 241°
2026-05-08 07:47 47.62709 -122.25979 4536 ft 180 kts 241°
2026-05-08 07:47 47.62122 -122.27609 3854 ft 181 kts 241°
2026-05-08 07:47 47.61527 -122.29260 3515 ft 182 kts 241°
2026-05-08 07:48 47.60778 -122.30780 3255 ft 186 kts 215°
2026-05-08 07:48 47.59591 -122.31340 3071 ft 182 kts 185°
2026-05-08 07:48 47.58324 -122.31534 2833 ft 182 kts 186°
2026-05-08 07:48 47.57079 -122.31684 2603 ft 179 kts 183°
2026-05-08 07:49 47.55827 -122.31734 2387 ft 179 kts 181°
2026-05-08 07:49 47.54635 -122.31785 2157 ft 163 kts 180°
2026-05-08 07:49 47.53564 -122.31736 1972 ft 148 kts 177°
2026-05-08 07:49 47.52573 -122.31709 1738 ft 138 kts 180°
2026-05-08 07:50 47.51627 -122.31740 1504 ft 136 kts 181°
2026-05-08 07:50 47.50676 -122.31771 1335 ft 135 kts 180°
2026-05-08 07:50 47.49731 -122.31759 1215 ft 137 kts 178°
2026-05-08 07:50 47.48769 -122.31776 981 ft 139 kts 180°
2026-05-08 07:51 47.47825 -122.31764 778 ft 135 kts 180°
2026-05-08 07:51 47.46882 -122.31781 565 ft 135 kts 179°
2026-05-08 07:51 47.45954 -122.31791 411 ft 133 kts 180°
2026-05-08 07:51 47.45132 -122.31799 395 ft 97 kts 181°
2026-05-08 07:52 47.44641 -122.31804 397 ft 44 kts 180°
2026-05-08 07:52 47.44393 -122.31796 397 ft 29 kts 169°
2026-05-08 07:52 47.44238 -122.31697 395 ft 15 kts 149°
2026-05-08 07:52 47.44146 -122.31618 397 ft 15 kts 150°
2026-05-08 07:53 47.44054 -122.31541 396 ft 15 kts 150°
2026-05-08 07:53 47.43962 -122.31463 395 ft 15 kts 150°
2026-05-08 07:53 47.43870 -122.31385 397 ft 15 kts 148°
2026-05-08 07:53 47.43807 -122.31264 397 ft 15 kts 103°
2026-05-08 07:54 47.43807 -122.31110 398 ft 15 kts 90°
2026-05-08 07:54 47.43807 -122.30952 398 ft 15 kts 90°
2026-05-08 07:54 47.43806 -122.30797 398 ft 15 kts 90°
2026-05-08 07:54 47.43815 -122.30666 396 ft 9 kts 63°
2026-05-08 07:55 47.43873 -122.30633 397 ft 9 kts 357°
2026-05-08 07:55 47.43931 -122.30636 394 ft 0 kts 358°
2026-05-08 07:55 47.43962 -122.30629 396 ft 5 kts 21°
2026-05-08 07:56 47.43982 -122.30586 395 ft 5 kts 84°
2026-05-08 07:56 47.43962 -122.30540 396 ft 5 kts 135°
2026-05-08 07:56 47.43938 -122.30496 396 ft 5 kts 126°
2026-05-08 07:56 47.43917 -122.30450 397 ft 5 kts 124°
2026-05-08 07:57 47.43907 -122.30429 397 ft 1 kts 124°
2026-05-08 07:57 47.43904 -122.30423 397 ft 0 kts 124°